Flag for Brazil Weather past 2 weeks in Campo Grande, Mato Grosso Do Sul, Brazil

Now
75 °F

Clear.


Feels Like: 78 °F
Forecast: 71 / 90 °F
Wind: 13 mph from East

Location: Campo Grande Aeroporto

Current Time: Sep 18, 2014 at 4:13:01 AM

Latest Report: Sep 18, 2014 at 3:00 AM


Visibility: 10 mi

Pressure: 29.92 "Hg

Humidity: 57%

Dew point: 59 °F

Location of Campo GrandeLocation

Historic Weather in Campo Grande — Graph

°F

Campo Grande temperature yesterday

Maximum temperature yesterday: 91 °F (at 12:00 PM)
Minimum temperature yesterday: 66 °F (at 2:00 AM)
Average temperature yesterday: 79 °F

Past Weeks' High & Low Weather Summary

 TemperatureHumidityPressure
High95 °F (Sep 14, 11:00 AM)94% (Sep 4, 9:00 PM)30.09 "Hg (Sep 4, 9:00 PM)
Low57 °F (Sep 16, 6:00 AM)21% (Sep 13, 2:00 PM)29.83 "Hg (Sep 10, 3:00 PM)
Average77 °F54%29.98 "Hg
* Reported Sep 3 3:00 AM — Sep 18 3:00 AM, Campo Grande, Weather by CustomWeather, © 2014

Note: Actual official high and low records may vary slightly from our data, if they occured in-between our weather recording intervals... More about our weather records

Advertising

Campo Grande weather history for previous 24 hours

 ConditionsComfort  
Time TempWeatherWind HumidityBarometerVisibility
3:00 AM
Sep 18
75 °FClear.13 mph57%29.92 "Hg10 mi
2:00 AM77 °FClear.13 mph54%29.92 "Hg10 mi
1:00 AM77 °FClear.10 mph54%29.95 "Hg10 mi
12:00 AM79 °FClear.10 mph51%29.95 "Hg10 mi
11:00 PM
Sep 17
75 °FClear.3 mph65%29.98 "Hg10 mi
10:00 PM73 °FClear.3 mph65%29.98 "Hg10 mi
9:00 PM75 °FClear.No wind65%29.98 "Hg10 mi
8:00 PM79 °FClear.3 mph54%29.95 "Hg10 mi
7:00 PM81 °FPassing clouds.2 mph51%29.92 "HgN/A
6:00 PM82 °FPassing clouds.3 mph48%29.92 "HgN/A
5:00 PM86 °FPassing clouds.5 mph46%29.92 "HgN/A
4:00 PM88 °FPassing clouds.8 mph38%29.92 "HgN/A
3:00 PM90 °FScattered clouds.5 mph38%29.92 "HgN/A
2:00 PM91 °FScattered clouds.7 mph34%29.92 "HgN/A
1:00 PM91 °FScattered clouds.6 mph36%29.95 "HgN/A
12:00 PM91 °FPassing clouds.6 mph38%30.01 "HgN/A
11:00 AM90 °FSunny.6 mph38%30.01 "Hg10 mi
10:00 AM86 °FPassing clouds.6 mph43%30.04 "HgN/A
9:00 AM81 °FSunny.12 mph51%30.04 "Hg10 mi
8:00 AM77 °FSunny.13 mph51%30.04 "Hg10 mi
7:00 AM72 °FSunny.14 mph61%30.01 "Hg10 mi
6:00 AM68 °FSunny.8 mph69%29.98 "Hg10 mi
5:00 AM68 °FSunny.8 mph64%29.95 "Hg10 mi
4:00 AM68 °FClear.9 mph60%29.92 "Hg10 mi
Weather by CustomWeather, © 2014

See weather overviewHow to use our weather pages